User: anonymous   Login
Location: Unspecified
(0.0000°N, 0.0000°E)
Time: 21:14:12
(UTC+01:00)
Language:

Milstar 3 Cent rocket - Orbit

View from above orbital plane
View from above orbital plane
View from above satellite
View from above satellite

Ground track
Ground track

The orbit data is extracted from the following two-line orbital elements,

1 25725U 99023B   15018.02276560 0.00000040  00000-0  89813-4 0    07
2 25725  28.3251 291.4533 2386418 182.2409 177.7585  9.67213203    02
Epoch (UTC): 18 January 2015 00:32:46
Eccentricity: 0.2386418
inclination: 28.3251°
perigee height: 706 km
apogee height: 5147 km
right ascension of ascending node: 291.4533°
argument of perigee: 182.2409°
revolutions per day: 9.67213203
mean anomaly at epoch: 177.7585°
orbit number at epoch: 0

The dashed part of the orbit path shows where the satellite is in the earth's shadow,  

DLR